Location: Schommer Observatory
(40.5200°N, 74.4500°W)
Time: 21:01:10
(UTC-05:00)

Tiangong 2 - Pass Details

Date: 14 November 2017
Orbit: 386 x 392 km, 42.8° (Epoch: 21 November)

Event Time Altitude Azimuth Distance (km) Brightness Sun altitude
Rises 17:56:42 0° 274° (W) 2,272 6.5 -14.5°
Reaches altitude 10° 17:59:45 10° 242° (WSW) 1,412 5.1 -15.1°
Maximum altitude 18:01:06 12° 217° (SW) 1,287 4.4 -15.4°
Drops below altitude 10° 18:02:27 10° 192° (SSW) 1,407 4.2 -15.6°
Sets 18:05:29 0° 160° (SSE) 2,254 4.9 -16.2°
